TimeCDT,TemperatureF,Dew PointF,Humidity,Sea Level PressureIn,VisibilityMPH,Wind Direction,Wind SpeedMPH,Gust SpeedMPH,PrecipitationIn,Events,Conditions,WindDirDegrees,DateUTC
12:15 AM,78.3,72.0,81,29.94,10.0,Calm,Calm,-,N/A,,Scattered Clouds,0,2013-09-02 05:15:00
12:35 AM,77.9,72.0,82,29.93,10.0,South,3.5,-,N/A,,Scattered Clouds,180,2013-09-02 05:35:00
12:55 AM,77.9,72.0,82,29.93,10.0,South,3.5,-,N/A,,Scattered Clouds,170,2013-09-02 05:55:00
1:15 AM,77.0,72.0,84,29.93,10.0,South,3.5,-,N/A,,Scattered Clouds,180,2013-09-02 06:15:00
1:35 AM,77.0,72.0,84,29.93,10.0,Calm,Calm,-,N/A,,Scattered Clouds,0,2013-09-02 06:35:00
1:55 AM,76.1,71.8,86,29.93,10.0,Calm,Calm,-,N/A,,Scattered Clouds,0,2013-09-02 06:55:00
2:15 AM,75.2,71.6,89,29.93,10.0,Calm,Calm,-,N/A,,Scattered Clouds,0,2013-09-02 07:15:00
2:35 AM,75.6,72.0,89,29.94,10.0,Calm,Calm,-,N/A,,Scattered Clouds,0,2013-09-02 07:35:00
2:55 AM,75.7,72.0,88,29.93,10.0,Calm,Calm,-,N/A,,Scattered Clouds,0,2013-09-02 07:55:00
3:15 AM,74.8,71.8,90,29.94,10.0,Calm,Calm,-,N/A,,Scattered Clouds,0,2013-09-02 08:15:00
3:35 AM,75.2,71.8,89,29.93,10.0,Calm,Calm,-,N/A,,Scattered Clouds,0,2013-09-02 08:35:00
3:55 AM,74.5,71.6,91,29.94,10.0,Calm,Calm,-,N/A,,Scattered Clouds,0,2013-09-02 08:55:00
4:15 AM,74.5,71.8,91,29.94,10.0,Calm,Calm,-,N/A,,Scattered Clouds,0,2013-09-02 09:15:00
4:35 AM,74.7,72.0,91,29.94,10.0,Calm,Calm,-,N/A,,Scattered Clouds,0,2013-09-02 09:35:00
4:55 AM,75.0,72.0,90,29.94,10.0,Calm,Calm,-,N/A,,Scattered Clouds,0,2013-09-02 09:55:00
5:15 AM,74.8,71.8,90,29.94,10.0,Calm,Calm,-,N/A,,Scattered Clouds,0,2013-09-02 10:15:00
5:35 AM,73.2,70.7,92,29.95,7.0,Calm,Calm,-,N/A,,Scattered Clouds,0,2013-09-02 10:35:00
5:55 AM,74.3,71.6,91,29.95,10.0,Calm,Calm,-,N/A,,Scattered Clouds,0,2013-09-02 10:55:00
6:15 AM,73.6,71.1,92,29.95,10.0,Calm,Calm,-,N/A,,Scattered Clouds,0,2013-09-02 11:15:00
6:35 AM,72.9,70.9,93,29.96,7.0,Calm,Calm,-,N/A,,Scattered Clouds,0,2013-09-02 11:35:00
6:55 AM,73.4,71.4,93,29.96,4.0,Calm,Calm,-,N/A,,Scattered Clouds,0,2013-09-02 11:55:00
7:15 AM,72.7,70.5,93,29.96,10.0,Calm,Calm,-,N/A,,Scattered Clouds,0,2013-09-02 12:15:00
7:35 AM,73.8,71.6,93,29.96,7.0,Calm,Calm,-,N/A,,Scattered Clouds,0,2013-09-02 12:35:00
7:55 AM,74.5,72.0,92,29.97,7.0,Calm,Calm,-,N/A,,Scattered Clouds,0,2013-09-02 12:55:00
8:15 AM,76.3,73.4,91,29.98,7.0,Calm,Calm,-,N/A,,Scattered Clouds,0,2013-09-02 13:15:00
8:35 AM,78.1,73.9,87,29.98,10.0,Calm,Calm,-,N/A,,Scattered Clouds,0,2013-09-02 13:35:00
8:55 AM,79.9,74.7,84,29.99,10.0,West,5.8,-,N/A,,Scattered Clouds,270,2013-09-02 13:55:00
9:15 AM,82.2,75.2,79,29.99,10.0,West,8.1,-,N/A,,Scattered Clouds,270,2013-09-02 14:15:00
9:35 AM,83.3,75.0,76,30.00,10.0,WSW,8.1,-,N/A,,Scattered Clouds,250,2013-09-02 14:35:00
9:55 AM,84.9,75.0,72,30.00,10.0,West,10.4,-,N/A,,Mostly Cloudy,270,2013-09-02 14:55:00
10:15 AM,86.2,72.9,64,30.01,10.0,SW,11.5,16.1,N/A,,Mostly Cloudy,230,2013-09-02 15:15:00
10:35 AM,87.3,71.8,60,30.01,10.0,SW,10.4,-,N/A,,Scattered Clouds,230,2013-09-02 15:35:00
10:55 AM,87.4,71.2,58,30.01,10.0,West,9.2,-,N/A,,Scattered Clouds,260,2013-09-02 15:55:00
11:15 AM,88.3,70.0,54,30.01,10.0,West,9.2,-,N/A,,Scattered Clouds,260,2013-09-02 16:15:00
11:35 AM,90.0,71.1,54,30.00,10.0,West,8.1,-,N/A,,Mostly Cloudy,270,2013-09-02 16:35:00
11:55 AM,90.5,70.2,51,30.00,10.0,West,9.2,-,N/A,,Scattered Clouds,260,2013-09-02 16:55:00
12:15 PM,90.9,68.9,48,29.99,10.0,WSW,8.1,-,N/A,,Scattered Clouds,240,2013-09-02 17:15:00
12:35 PM,89.6,68.5,50,29.99,10.0,NNW,3.5,-,N/A,,Mostly Cloudy,330,2013-09-02 17:35:00
12:55 PM,92.3,68.4,45,29.98,10.0,SW,5.8,-,N/A,,Scattered Clouds,230,2013-09-02 17:55:00
1:15 PM,93.6,65.8,40,29.97,10.0,West,5.8,-,N/A,,Scattered Clouds,260,2013-09-02 18:15:00
1:35 PM,93.4,66.6,41,29.96,10.0,NW,5.8,-,N/A,,Mostly Cloudy,310,2013-09-02 18:35:00
1:55 PM,93.6,66.6,41,29.95,10.0,SSW,3.5,-,N/A,,Mostly Cloudy,200,2013-09-02 18:55:00
2:15 PM,94.5,64.9,38,29.94,10.0,West,4.6,-,N/A,,Scattered Clouds,260,2013-09-02 19:15:00
2:35 PM,96.3,65.7,36,29.93,10.0,WSW,5.8,-,N/A,,Scattered Clouds,240,2013-09-02 19:35:00
2:55 PM,95.4,63.9,35,29.92,10.0,Calm,Calm,-,N/A,,Scattered Clouds,0,2013-09-02 19:55:00
3:15 PM,95.7,63.7,35,29.91,10.0,Calm,Calm,-,N/A,,Scattered Clouds,0,2013-09-02 20:15:00
3:35 PM,96.6,61.5,31,29.90,10.0,SSE,4.6,-,N/A,,Scattered Clouds,160,2013-09-02 20:35:00
3:55 PM,97.0,60.6,30,29.89,10.0,Calm,Calm,-,N/A,,Scattered Clouds,0,2013-09-02 20:55:00
4:15 PM,96.4,61.2,31,29.87,10.0,East,3.5,-,N/A,,Scattered Clouds,80,2013-09-02 21:15:00
4:35 PM,96.4,61.7,32,29.87,10.0,South,4.6,-,N/A,,Scattered Clouds,190,2013-09-02 21:35:00
4:55 PM,96.6,62.2,32,29.87,10.0,SSW,3.5,-,N/A,,Scattered Clouds,200,2013-09-02 21:55:00
5:15 PM,96.3,61.9,32,29.86,10.0,Calm,Calm,-,N/A,,Scattered Clouds,0,2013-09-02 22:15:00
5:35 PM,96.6,61.5,31,29.86,10.0,Calm,Calm,-,N/A,,Scattered Clouds,0,2013-09-02 22:35:00
5:55 PM,96.1,61.9,32,29.86,10.0,South,3.5,-,N/A,,Scattered Clouds,190,2013-09-02 22:55:00
6:15 PM,95.4,61.9,33,29.86,10.0,South,3.5,-,N/A,,Scattered Clouds,190,2013-09-02 23:15:00
6:35 PM,95.2,63.0,34,29.86,10.0,SSW,4.6,-,N/A,,Scattered Clouds,200,2013-09-02 23:35:00
6:55 PM,92.7,68.9,46,29.87,10.0,South,9.2,-,N/A,Thunderstorm,Scattered Clouds,180,2013-09-02 23:55:00
7:15 PM,90.0,70.0,52,29.88,10.0,SSW,9.2,-,N/A,,Mostly Cloudy,200,2013-09-03 00:15:00
7:35 PM,89.2,67.6,49,29.91,10.0,NW,16.1,-,N/A,,Overcast,310,2013-09-03 00:35:00
7:55 PM,79.5,71.4,76,29.90,4.0,NNW,3.5,-,0.18,Rain,Rain,330,2013-09-03 00:55:00
8:15 PM,78.8,73.4,83,29.89,10.0,Calm,Calm,-,N/A,Rain,Light Rain,0,2013-09-03 01:15:00
8:35 PM,77.4,73.6,88,29.90,10.0,Calm,Calm,-,N/A,,Scattered Clouds,0,2013-09-03 01:35:00
8:55 PM,77.7,74.5,90,29.90,10.0,Calm,Calm,-,N/A,,Scattered Clouds,0,2013-09-03 01:55:00
9:15 PM,78.4,75.0,89,29.91,10.0,Calm,Calm,-,N/A,,Scattered Clouds,0,2013-09-03 02:15:00
9:35 PM,79.0,74.8,87,29.91,10.0,Calm,Calm,-,N/A,,Scattered Clouds,0,2013-09-03 02:35:00
9:55 PM,79.9,74.5,83,29.92,10.0,South,3.5,-,N/A,,Scattered Clouds,180,2013-09-03 02:55:00
10:15 PM,80.4,73.8,80,29.93,10.0,Calm,Calm,-,N/A,,Scattered Clouds,0,2013-09-03 03:15:00
10:35 PM,81.5,73.4,76,29.94,10.0,South,3.5,-,N/A,,Scattered Clouds,170,2013-09-03 03:35:00
10:55 PM,79.7,73.9,82,29.94,10.0,Calm,Calm,-,N/A,,Scattered Clouds,0,2013-09-03 03:55:00
11:15 PM,79.9,73.8,81,29.94,10.0,South,4.6,-,N/A,,Scattered Clouds,180,2013-09-03 04:15:00
11:35 PM,79.9,73.9,82,29.94,10.0,South,3.5,-,N/A,,Scattered Clouds,180,2013-09-03 04:35:00
11:55 PM,79.2,73.9,84,29.95,10.0,Calm,Calm,-,N/A,,Scattered Clouds,0,2013-09-03 04:55:00